Year,Month,Day,Hour,Minute,Value (Times are PST for temperature in C)
2017,06,23,00,00,12.10
2017,06,23,00,01,12.10
2017,06,23,00,02,12.10
2017,06,23,00,03,12.10
2017,06,23,00,04,12.10
2017,06,23,00,05,12.10
2017,06,23,00,06,12.20
2017,06,23,00,07,12.20
2017,06,23,00,08,12.20
2017,06,23,00,09,12.30
2017,06,23,00,10,12.30
2017,06,23,00,11,12.30
2017,06,23,00,12,12.40
2017,06,23,00,13,12.40
2017,06,23,00,14,12.40
2017,06,23,00,15,12.40
2017,06,23,00,16,12.40
2017,06,23,00,17,12.40
2017,06,23,00,18,12.40
2017,06,23,00,19,12.30
2017,06,23,00,20,12.30
2017,06,23,00,21,12.30
2017,06,23,00,22,12.30
2017,06,23,00,23,12.30
2017,06,23,00,24,12.30
2017,06,23,00,25,12.30
2017,06,23,00,26,12.30
2017,06,23,00,27,12.30
2017,06,23,00,28,12.40
2017,06,23,00,29,12.40
2017,06,23,00,30,12.40
2017,06,23,00,31,12.40
2017,06,23,00,32,12.50
2017,06,23,00,33,12.50
2017,06,23,00,34,12.50
2017,06,23,00,35,12.60
2017,06,23,00,36,12.60
2017,06,23,00,37,12.60
2017,06,23,00,38,12.60
2017,06,23,00,39,12.60
2017,06,23,00,40,12.60
2017,06,23,00,41,12.60
2017,06,23,00,42,12.50
2017,06,23,00,43,12.50
2017,06,23,00,44,12.50
2017,06,23,00,45,12.50
2017,06,23,00,46,12.50
2017,06,23,00,47,12.50
2017,06,23,00,48,12.60
2017,06,23,00,49,12.60
2017,06,23,00,50,12.70
2017,06,23,00,51,12.70
2017,06,23,00,52,12.80
2017,06,23,00,53,12.80
2017,06,23,00,54,12.80
2017,06,23,00,55,12.80
2017,06,23,00,56,12.80
2017,06,23,00,57,12.90
2017,06,23,00,58,12.90
2017,06,23,00,59,12.90
2017,06,23,01,00,12.90
2017,06,23,01,01,12.90
2017,06,23,01,02,12.90
2017,06,23,01,03,13.00
2017,06,23,01,04,13.00
2017,06,23,01,05,13.00
2017,06,23,01,06,13.00
2017,06,23,01,07,13.00
2017,06,23,01,08,13.10
2017,06,23,01,09,13.10
2017,06,23,01,10,13.10
2017,06,23,01,11,13.10
2017,06,23,01,12,13.20
2017,06,23,01,13,13.20
2017,06,23,01,14,13.20
2017,06,23,01,15,13.20
2017,06,23,01,16,13.20
2017,06,23,01,17,13.20
2017,06,23,01,18,13.20
2017,06,23,01,19,13.20
2017,06,23,01,20,13.20
2017,06,23,01,21,13.20
2017,06,23,01,22,13.20
2017,06,23,01,23,13.20
2017,06,23,01,24,13.20
2017,06,23,01,25,13.20
2017,06,23,01,26,13.20
2017,06,23,01,27,13.10
2017,06,23,01,28,13.10
2017,06,23,01,29,13.10
2017,06,23,01,30,13.10
2017,06,23,01,31,13.20
2017,06,23,01,32,13.20
2017,06,23,01,33,13.20
2017,06,23,01,34,13.20
2017,06,23,01,35,13.20
2017,06,23,01,36,13.20
2017,06,23,01,37,13.20
2017,06,23,01,38,13.20
2017,06,23,01,39,13.10
2017,06,23,01,40,13.10
2017,06,23,01,41,13.20
2017,06,23,01,42,13.10
2017,06,23,01,43,13.10
2017,06,23,01,44,13.10
2017,06,23,01,45,13.10
2017,06,23,01,46,13.10
2017,06,23,01,47,13.10
2017,06,23,01,48,13.10
2017,06,23,01,49,13.10
2017,06,23,01,50,13.10
2017,06,23,01,51,13.10
2017,06,23,01,52,13.00
2017,06,23,01,53,13.00
2017,06,23,01,54,13.00
2017,06,23,01,55,13.00
2017,06,23,01,56,13.00
2017,06,23,01,57,13.00
2017,06,23,01,58,12.90
2017,06,23,01,59,12.90
2017,06,23,02,00,12.90
2017,06,23,02,01,12.90
2017,06,23,02,02,12.90
2017,06,23,02,03,12.80
2017,06,23,02,04,12.80
2017,06,23,02,05,12.80
2017,06,23,02,06,12.80
2017,06,23,02,07,12.80
2017,06,23,02,08,12.80
2017,06,23,02,09,12.80
2017,06,23,02,10,12.80
2017,06,23,02,11,12.80
2017,06,23,02,12,12.80
2017,06,23,02,13,12.80
2017,06,23,02,14,12.80
2017,06,23,02,15,12.80
2017,06,23,02,16,12.80
2017,06,23,02,17,12.80
2017,06,23,02,18,12.80
2017,06,23,02,19,12.80
2017,06,23,02,20,12.80
2017,06,23,02,21,12.80
2017,06,23,02,22,12.80
2017,06,23,02,23,12.80
2017,06,23,02,24,12.80
2017,06,23,02,25,12.70
2017,06,23,02,26,12.70
2017,06,23,02,27,12.70
2017,06,23,02,28,12.70
2017,06,23,02,29,12.70
2017,06,23,02,30,12.70
2017,06,23,02,31,12.70
2017,06,23,02,32,12.70
2017,06,23,02,33,12.70
2017,06,23,02,34,12.70
2017,06,23,02,35,12.70
2017,06,23,02,36,12.70
2017,06,23,02,37,12.70
2017,06,23,02,38,12.70
2017,06,23,02,39,12.70
2017,06,23,02,40,12.70
2017,06,23,02,41,12.70
2017,06,23,02,42,12.70
2017,06,23,02,43,12.70
2017,06,23,02,44,12.70
2017,06,23,02,45,12.70
2017,06,23,02,46,12.70
2017,06,23,02,47,12.70
2017,06,23,02,48,12.70
2017,06,23,02,49,12.80
2017,06,23,02,50,12.80
2017,06,23,02,51,12.80
2017,06,23,02,52,12.70
2017,06,23,02,53,12.70
2017,06,23,02,54,12.60
2017,06,23,02,55,12.60
2017,06,23,02,56,12.60
2017,06,23,02,57,12.60
2017,06,23,02,58,12.60
2017,06,23,02,59,12.60
2017,06,23,03,00,12.60
2017,06,23,03,01,12.60
2017,06,23,03,02,12.60
2017,06,23,03,03,12.60
2017,06,23,03,04,12.60
2017,06,23,03,05,12.70
2017,06,23,03,06,12.70
2017,06,23,03,07,12.70
2017,06,23,03,08,12.70
2017,06,23,03,09,12.70
2017,06,23,03,10,12.70
2017,06,23,03,11,12.70
2017,06,23,03,12,12.70
2017,06,23,03,13,12.70
2017,06,23,03,14,12.60
2017,06,23,03,15,12.60
2017,06,23,03,16,12.60
2017,06,23,03,17,12.60
2017,06,23,03,18,12.60
2017,06,23,03,19,12.50
2017,06,23,03,20,12.50
2017,06,23,03,21,12.50
2017,06,23,03,22,12.50
2017,06,23,03,23,12.40
2017,06,23,03,24,12.50
2017,06,23,03,25,12.50
2017,06,23,03,26,12.50
2017,06,23,03,27,12.50
2017,06,23,03,28,12.50
2017,06,23,03,29,12.50
2017,06,23,03,30,12.50
2017,06,23,03,31,12.50
2017,06,23,03,32,12.50
2017,06,23,03,33,12.50
2017,06,23,03,34,12.40
2017,06,23,03,35,12.40
2017,06,23,03,36,12.40
2017,06,23,03,37,12.40
2017,06,23,03,38,12.40
2017,06,23,03,39,12.40
2017,06,23,03,40,12.40
2017,06,23,03,41,12.40
2017,06,23,03,42,12.30
2017,06,23,03,43,12.30
2017,06,23,03,44,12.30
2017,06,23,03,45,12.30
2017,06,23,03,46,12.20
2017,06,23,03,47,12.20
2017,06,23,03,48,12.10
2017,06,23,03,49,12.10
2017,06,23,03,50,12.10
2017,06,23,03,51,12.10
2017,06,23,03,52,12.00
2017,06,23,03,53,12.00
2017,06,23,03,54,11.90
2017,06,23,03,55,11.90
2017,06,23,03,56,11.90
2017,06,23,03,57,11.80
2017,06,23,03,58,11.80
2017,06,23,03,59,11.80
2017,06,23,04,00,11.70
2017,06,23,04,01,11.60
2017,06,23,04,02,11.60
2017,06,23,04,03,11.50
2017,06,23,04,04,11.50
2017,06,23,04,05,11.40
2017,06,23,04,06,11.40
2017,06,23,04,07,11.40
2017,06,23,04,08,11.40
2017,06,23,04,09,11.30
2017,06,23,04,10,11.30
2017,06,23,04,11,11.30
2017,06,23,04,12,11.30
2017,06,23,04,13,11.20
2017,06,23,04,14,11.20
2017,06,23,04,15,11.20
2017,06,23,04,16,11.20
2017,06,23,04,17,11.20
2017,06,23,04,18,11.20
2017,06,23,04,19,11.20
2017,06,23,04,20,11.20
2017,06,23,04,21,11.20
2017,06,23,04,22,11.10
2017,06,23,04,23,11.20
2017,06,23,04,24,11.20
2017,06,23,04,25,11.20
2017,06,23,04,26,11.20
2017,06,23,04,27,11.20
2017,06,23,04,28,11.20
2017,06,23,04,29,11.20
2017,06,23,04,30,11.20
2017,06,23,04,31,11.20
2017,06,23,04,32,11.20
2017,06,23,04,33,11.20
2017,06,23,04,34,11.20
2017,06,23,04,35,11.20
2017,06,23,04,36,11.10
2017,06,23,04,37,11.10
2017,06,23,04,38,11.10
2017,06,23,04,39,11.10
2017,06,23,04,40,11.10
2017,06,23,04,41,11.10
2017,06,23,04,42,11.20
2017,06,23,04,43,11.20
2017,06,23,04,44,11.20
2017,06,23,04,45,11.20
2017,06,23,04,46,11.20
2017,06,23,04,47,11.20
2017,06,23,04,48,11.30
2017,06,23,04,49,11.30
2017,06,23,04,50,11.30
2017,06,23,04,51,11.30
2017,06,23,04,52,11.30
2017,06,23,04,53,11.20
2017,06,23,04,54,11.20
2017,06,23,04,55,11.20
2017,06,23,04,56,11.10
2017,06,23,04,57,11.10
2017,06,23,04,58,11.10
2017,06,23,04,59,11.10
2017,06,23,05,00,11.10
2017,06,23,05,01,11.10
2017,06,23,05,02,11.10
2017,06,23,05,03,11.10
2017,06,23,05,04,11.10
2017,06,23,05,05,11.10
2017,06,23,05,06,11.10
2017,06,23,05,07,11.00
2017,06,23,05,08,10.90
2017,06,23,05,09,10.90
2017,06,23,05,10,10.90
2017,06,23,05,11,10.80
2017,06,23,05,12,10.80
2017,06,23,05,13,10.80
2017,06,23,05,14,10.70
2017,06,23,05,15,10.70
2017,06,23,05,16,10.70
2017,06,23,05,17,10.60
2017,06,23,05,18,10.60
2017,06,23,05,19,10.60
2017,06,23,05,20,10.60
2017,06,23,05,21,10.60
2017,06,23,05,22,10.60
2017,06,23,05,23,10.60
2017,06,23,05,24,10.60
2017,06,23,05,25,10.70
2017,06,23,05,26,10.70
2017,06,23,05,27,10.70
2017,06,23,05,28,10.70
2017,06,23,05,29,10.80
2017,06,23,05,30,10.80
2017,06,23,05,31,10.80
2017,06,23,05,32,10.80
2017,06,23,05,33,10.90
2017,06,23,05,34,10.90
2017,06,23,05,35,10.90
2017,06,23,05,36,11.00
2017,06,23,05,37,11.00
2017,06,23,05,38,11.00
2017,06,23,05,39,11.10
2017,06,23,05,40,11.10
2017,06,23,05,41,11.10
2017,06,23,05,42,11.10
2017,06,23,05,43,11.20
2017,06,23,05,44,11.20
2017,06,23,05,45,11.20
2017,06,23,05,46,11.20
2017,06,23,05,47,11.20
2017,06,23,05,48,11.20
2017,06,23,05,49,11.20
2017,06,23,05,50,11.20
2017,06,23,05,51,11.20
2017,06,23,05,52,11.20
2017,06,23,05,53,11.20
2017,06,23,05,54,11.30
2017,06,23,05,55,11.30
2017,06,23,05,56,11.30
2017,06,23,05,57,11.40
2017,06,23,05,58,11.40
2017,06,23,05,59,11.50
2017,06,23,06,00,11.50
2017,06,23,06,01,11.50
2017,06,23,06,02,11.60
2017,06,23,06,03,11.60
2017,06,23,06,04,11.60
2017,06,23,06,05,11.70
2017,06,23,06,06,11.70
2017,06,23,06,07,11.70
2017,06,23,06,08,11.70
2017,06,23,06,09,11.70
2017,06,23,06,10,11.80
2017,06,23,06,11,11.80
2017,06,23,06,12,11.80
2017,06,23,06,13,11.80
2017,06,23,06,14,11.80
2017,06,23,06,15,11.80
2017,06,23,06,16,11.80
2017,06,23,06,17,11.80
2017,06,23,06,18,11.80
2017,06,23,06,19,11.90
2017,06,23,06,20,11.90
2017,06,23,06,21,11.90
2017,06,23,06,22,12.00
2017,06,23,06,23,12.00
2017,06,23,06,24,12.00
2017,06,23,06,25,12.10
2017,06,23,06,26,12.10
2017,06,23,06,27,12.10
2017,06,23,06,28,12.10
2017,06,23,06,29,12.10
2017,06,23,06,30,12.20
2017,06,23,06,31,12.20
2017,06,23,06,32,12.20
2017,06,23,06,33,12.20
2017,06,23,06,34,12.20
2017,06,23,06,35,12.20
2017,06,23,06,36,12.30
2017,06,23,06,37,12.30
2017,06,23,06,38,12.30
2017,06,23,06,39,12.30
2017,06,23,06,40,12.40
2017,06,23,06,41,12.40
2017,06,23,06,42,12.40
2017,06,23,06,43,12.50
2017,06,23,06,44,12.50
2017,06,23,06,45,12.60
2017,06,23,06,46,12.60
2017,06,23,06,47,12.70
2017,06,23,06,48,12.80
2017,06,23,06,49,12.80
2017,06,23,06,50,12.90
2017,06,23,06,51,12.90
2017,06,23,06,52,13.00
2017,06,23,06,53,13.10
2017,06,23,06,54,13.10
2017,06,23,06,55,13.20
2017,06,23,06,56,13.20
2017,06,23,06,57,13.30
2017,06,23,06,58,13.30
2017,06,23,06,59,13.40
2017,06,23,07,00,13.40
2017,06,23,07,01,13.50
2017,06,23,07,02,13.50
2017,06,23,07,03,13.60
2017,06,23,07,04,13.60
2017,06,23,07,05,13.60
2017,06,23,07,06,13.70
2017,06,23,07,07,13.70
2017,06,23,07,08,13.70
2017,06,23,07,09,13.80
2017,06,23,07,10,13.80
2017,06,23,07,11,13.90
2017,06,23,07,12,13.90
2017,06,23,07,13,14.00
2017,06,23,07,14,14.00
2017,06,23,07,15,14.10
2017,06,23,07,16,14.10
2017,06,23,07,17,14.10
2017,06,23,07,18,14.20
2017,06,23,07,19,14.20
2017,06,23,07,20,14.20
2017,06,23,07,21,14.20
2017,06,23,07,22,14.30
2017,06,23,07,23,14.30
2017,06,23,07,24,14.30
2017,06,23,07,25,14.40
2017,06,23,07,26,14.40
2017,06,23,07,27,14.50
2017,06,23,07,28,14.50
2017,06,23,07,29,14.60
2017,06,23,07,30,14.60
2017,06,23,07,31,14.60
2017,06,23,07,32,14.60
2017,06,23,07,33,14.70
2017,06,23,07,34,14.70
2017,06,23,07,35,14.70
2017,06,23,07,36,14.70
2017,06,23,07,37,14.70
2017,06,23,07,38,14.70
2017,06,23,07,39,14.80
2017,06,23,07,40,14.80
2017,06,23,07,41,14.80
2017,06,23,07,42,14.80
2017,06,23,07,43,14.90
2017,06,23,07,44,14.90
2017,06,23,07,45,15.00
2017,06,23,07,46,15.00
2017,06,23,07,47,15.10
2017,06,23,07,48,15.10
2017,06,23,07,49,15.20
2017,06,23,07,50,15.20
2017,06,23,07,51,15.30
2017,06,23,07,52,15.30
2017,06,23,07,53,15.40
2017,06,23,07,54,15.40
2017,06,23,07,55,15.50
2017,06,23,07,56,15.50
2017,06,23,07,57,15.60
2017,06,23,07,58,15.60
2017,06,23,07,59,15.60
2017,06,23,08,00,15.70
2017,06,23,08,01,15.70
2017,06,23,08,02,15.70
2017,06,23,08,03,15.80
2017,06,23,08,04,15.80
2017,06,23,08,05,15.90
2017,06,23,08,06,15.90
2017,06,23,08,07,16.00
2017,06,23,08,08,16.00
2017,06,23,08,09,16.00
2017,06,23,08,10,16.10
2017,06,23,08,11,16.10
2017,06,23,08,12,16.10
2017,06,23,08,13,16.20
2017,06,23,08,14,16.20
2017,06,23,08,15,16.20
2017,06,23,08,16,16.20
2017,06,23,08,17,16.30
2017,06,23,08,18,16.30
2017,06,23,08,19,16.40
2017,06,23,08,20,16.40
2017,06,23,08,21,16.40
2017,06,23,08,22,16.40
2017,06,23,08,23,16.50
2017,06,23,08,24,16.50
2017,06,23,08,25,16.60
2017,06,23,08,26,16.60
2017,06,23,08,27,16.60
2017,06,23,08,28,16.70
2017,06,23,08,29,16.80
2017,06,23,08,30,16.80
2017,06,23,08,31,16.90
2017,06,23,08,32,17.00
2017,06,23,08,33,17.00
2017,06,23,08,34,17.00
2017,06,23,08,35,17.10
2017,06,23,08,36,17.10
2017,06,23,08,37,17.20
2017,06,23,08,38,17.20
2017,06,23,08,39,17.30
2017,06,23,08,40,17.30
2017,06,23,08,41,17.40
2017,06,23,08,42,17.40
2017,06,23,08,43,17.40
2017,06,23,08,44,17.50
2017,06,23,08,45,17.50
2017,06,23,08,46,17.50
2017,06,23,08,47,17.60
2017,06,23,08,48,17.60
2017,06,23,08,49,17.70
2017,06,23,08,50,17.70
2017,06,23,08,51,17.90
2017,06,23,08,52,18.00
2017,06,23,08,53,18.10
2017,06,23,08,54,18.30
2017,06,23,08,55,18.40
2017,06,23,08,56,18.60
2017,06,23,08,57,18.70
2017,06,23,08,58,18.80
2017,06,23,08,59,18.80
2017,06,23,09,00,18.80
2017,06,23,09,01,18.80
2017,06,23,09,02,18.80
2017,06,23,09,03,18.80
2017,06,23,09,04,18.80
2017,06,23,09,05,18.80
2017,06,23,09,06,18.80
2017,06,23,09,07,18.70
2017,06,23,09,08,18.70
2017,06,23,09,09,18.60
2017,06,23,09,10,18.60
2017,06,23,09,11,18.60
2017,06,23,09,12,18.60
2017,06,23,09,13,18.70
2017,06,23,09,14,18.70
2017,06,23,09,15,18.70
2017,06,23,09,16,18.70
2017,06,23,09,17,18.70
2017,06,23,09,18,18.80
2017,06,23,09,19,18.80
2017,06,23,09,20,18.80
2017,06,23,09,21,18.90
2017,06,23,09,22,18.90
2017,06,23,09,23,19.00
2017,06,23,09,24,19.00
2017,06,23,09,25,19.00
2017,06,23,09,26,19.10
2017,06,23,09,27,19.20
2017,06,23,09,28,19.20
2017,06,23,09,29,19.20
2017,06,23,09,30,19.20
2017,06,23,09,31,19.20
2017,06,23,09,32,19.20
2017,06,23,09,33,19.20
2017,06,23,09,34,19.30
2017,06,23,09,35,19.20
2017,06,23,09,36,19.20
2017,06,23,09,37,19.10
2017,06,23,09,38,19.10
2017,06,23,09,39,19.10
2017,06,23,09,40,19.10
2017,06,23,09,41,19.10
2017,06,23,09,42,19.20
2017,06,23,09,43,19.20
2017,06,23,09,44,19.20
2017,06,23,09,45,19.20
2017,06,23,09,46,19.10
2017,06,23,09,47,19.10
2017,06,23,09,48,19.10
2017,06,23,09,49,19.20
2017,06,23,09,50,19.20
2017,06,23,09,51,19.20
2017,06,23,09,52,19.20
2017,06,23,09,53,19.30
2017,06,23,09,54,19.30
2017,06,23,09,55,19.30
2017,06,23,09,56,19.30
2017,06,23,09,57,19.40
2017,06,23,09,58,19.50
2017,06,23,09,59,19.50
2017,06,23,10,00,19.50
2017,06,23,10,01,19.50
2017,06,23,10,02,19.60
2017,06,23,10,03,19.60
2017,06,23,10,04,19.50
2017,06,23,10,05,19.50
2017,06,23,10,06,19.40
2017,06,23,10,07,19.30
2017,06,23,10,08,19.30
2017,06,23,10,09,19.30
2017,06,23,10,10,19.30
2017,06,23,10,11,19.30
2017,06,23,10,12,19.30
2017,06,23,10,13,19.30
2017,06,23,10,14,19.30
2017,06,23,10,15,19.40
2017,06,23,10,16,19.40
2017,06,23,10,17,19.30
2017,06,23,10,18,19.30
2017,06,23,10,19,19.40
2017,06,23,10,20,19.40
2017,06,23,10,21,19.40
2017,06,23,10,22,19.40
2017,06,23,10,23,19.40
2017,06,23,10,24,19.40
2017,06,23,10,25,19.30
2017,06,23,10,26,19.30
2017,06,23,10,27,19.30
2017,06,23,10,28,19.30
2017,06,23,10,29,19.30
2017,06,23,10,30,19.20
2017,06,23,10,31,19.20
2017,06,23,10,32,19.20
2017,06,23,10,33,19.20
2017,06,23,10,34,19.10
2017,06,23,10,35,19.10
2017,06,23,10,36,19.10
2017,06,23,10,37,19.10
2017,06,23,10,38,19.10
2017,06,23,10,39,19.20
2017,06,23,10,40,19.30
2017,06,23,10,41,19.30
2017,06,23,10,42,19.30
2017,06,23,10,43,19.30
2017,06,23,10,44,19.30
2017,06,23,10,45,19.40
2017,06,23,10,46,19.40
2017,06,23,10,47,19.50
2017,06,23,10,48,19.50
2017,06,23,10,49,19.60
2017,06,23,10,50,19.60
2017,06,23,10,51,19.70
2017,06,23,10,52,19.70
2017,06,23,10,53,19.70
2017,06,23,10,54,19.70
2017,06,23,10,55,19.70
2017,06,23,10,56,19.70
2017,06,23,10,57,19.70
2017,06,23,10,58,19.70
2017,06,23,10,59,19.70
2017,06,23,11,00,19.70
2017,06,23,11,01,19.80
2017,06,23,11,02,19.80
2017,06,23,11,03,19.90
2017,06,23,11,04,19.90
2017,06,23,11,05,19.90
2017,06,23,11,06,19.90
2017,06,23,11,07,19.90
2017,06,23,11,08,19.90
2017,06,23,11,09,20.00
2017,06,23,11,10,20.00
2017,06,23,11,11,20.10
2017,06,23,11,12,20.20
2017,06,23,11,13,20.30
2017,06,23,11,14,20.30
2017,06,23,11,15,20.30
2017,06,23,11,16,20.30
2017,06,23,11,17,20.30
2017,06,23,11,18,20.40
2017,06,23,11,19,20.50
2017,06,23,11,20,20.60
2017,06,23,11,21,20.80
2017,06,23,11,22,20.90
2017,06,23,11,23,20.90
2017,06,23,11,24,21.00
2017,06,23,11,25,21.00
2017,06,23,11,26,20.80
2017,06,23,11,27,20.90
2017,06,23,11,28,20.90
2017,06,23,11,29,20.90
2017,06,23,11,30,21.00
2017,06,23,11,31,21.00
2017,06,23,11,32,20.90
2017,06,23,11,33,20.90
2017,06,23,11,34,21.00
2017,06,23,11,35,21.00
2017,06,23,11,36,20.90
2017,06,23,11,37,20.90
2017,06,23,11,38,20.90
2017,06,23,11,39,20.90
2017,06,23,11,40,20.90
2017,06,23,11,41,20.80
2017,06,23,11,42,20.90
2017,06,23,11,43,20.90
2017,06,23,11,44,20.90
2017,06,23,11,45,20.90
2017,06,23,11,46,20.80
2017,06,23,11,47,20.80
2017,06,23,11,48,20.80
2017,06,23,11,49,20.80
2017,06,23,11,50,20.80
2017,06,23,11,51,20.80
2017,06,23,11,52,20.90
2017,06,23,11,53,21.00
2017,06,23,11,54,21.00
2017,06,23,11,55,21.00
2017,06,23,11,56,21.00
2017,06,23,11,57,20.90
2017,06,23,11,58,20.80
2017,06,23,11,59,20.80
2017,06,23,12,00,20.70
2017,06,23,12,01,20.70
2017,06,23,12,02,20.70
2017,06,23,12,03,20.80
2017,06,23,12,04,20.80
2017,06,23,12,05,20.80
2017,06,23,12,06,20.80
2017,06,23,12,07,20.80
2017,06,23,12,08,20.80
2017,06,23,12,09,20.90
2017,06,23,12,10,21.00
2017,06,23,12,11,21.00
2017,06,23,12,12,21.10
2017,06,23,12,13,21.10
2017,06,23,12,14,21.20
2017,06,23,12,15,21.20
2017,06,23,12,16,21.20
2017,06,23,12,17,21.20
2017,06,23,12,18,21.20
2017,06,23,12,19,21.20
2017,06,23,12,20,21.20
2017,06,23,12,21,21.30
2017,06,23,12,22,21.30
2017,06,23,12,23,21.30
2017,06,23,12,24,21.30
2017,06,23,12,25,21.30
2017,06,23,12,26,21.30
2017,06,23,12,27,21.30
2017,06,23,12,28,21.30
2017,06,23,12,29,21.30
2017,06,23,12,30,21.40
2017,06,23,12,31,21.40
2017,06,23,12,32,21.50
2017,06,23,12,33,21.40
2017,06,23,12,34,21.40
2017,06,23,12,35,21.40
2017,06,23,12,36,21.40
2017,06,23,12,37,21.40
2017,06,23,12,38,21.40
2017,06,23,12,39,21.50
2017,06,23,12,40,21.60
2017,06,23,12,41,21.60
2017,06,23,12,42,21.60
2017,06,23,12,43,21.60
2017,06,23,12,44,21.50
2017,06,23,12,45,21.50
2017,06,23,12,46,21.50
2017,06,23,12,47,21.60
2017,06,23,12,48,21.70
2017,06,23,12,49,21.80
2017,06,23,12,50,21.90
2017,06,23,12,51,21.90
2017,06,23,12,52,21.90
2017,06,23,12,53,21.90
2017,06,23,12,54,21.80
2017,06,23,12,55,21.80
2017,06,23,12,56,21.70
2017,06,23,12,57,21.70
2017,06,23,12,58,21.70
2017,06,23,12,59,21.70
2017,06,23,13,00,21.70
2017,06,23,13,01,21.70
2017,06,23,13,02,21.80
2017,06,23,13,03,22.00
2017,06,23,13,04,22.10
2017,06,23,13,05,22.20
2017,06,23,13,06,22.10
2017,06,23,13,07,22.00
2017,06,23,13,08,22.00
2017,06,23,13,09,22.00
2017,06,23,13,10,22.00
2017,06,23,13,11,21.90
2017,06,23,13,12,21.90
2017,06,23,13,13,21.90
2017,06,23,13,14,21.80
2017,06,23,13,15,21.80
2017,06,23,13,16,21.70
2017,06,23,13,17,21.70
2017,06,23,13,18,21.80
2017,06,23,13,19,21.80
2017,06,23,13,20,21.80
2017,06,23,13,21,21.80
2017,06,23,13,22,21.80
2017,06,23,13,23,21.80
2017,06,23,13,24,21.80
2017,06,23,13,25,21.80
2017,06,23,13,26,21.80
2017,06,23,13,27,21.90
2017,06,23,13,28,21.90
2017,06,23,13,29,21.90
2017,06,23,13,30,21.90
2017,06,23,13,31,21.80
2017,06,23,13,32,21.70
2017,06,23,13,33,21.70
2017,06,23,13,34,21.80
2017,06,23,13,35,21.80
2017,06,23,13,36,21.90
2017,06,23,13,37,21.90
2017,06,23,13,38,22.00
2017,06,23,13,39,22.10
2017,06,23,13,40,22.10
2017,06,23,13,41,22.00
2017,06,23,13,42,22.00
2017,06,23,13,43,21.90
2017,06,23,13,44,21.80
2017,06,23,13,45,21.80
2017,06,23,13,46,21.80
2017,06,23,13,47,21.80
2017,06,23,13,48,21.90
2017,06,23,13,49,22.00
2017,06,23,13,50,22.10
2017,06,23,13,51,22.20
2017,06,23,13,52,22.30
2017,06,23,13,53,22.40
2017,06,23,13,54,22.40
2017,06,23,13,55,22.40
2017,06,23,13,56,22.40
2017,06,23,13,57,22.50
2017,06,23,13,58,22.60
2017,06,23,13,59,22.70
2017,06,23,14,00,22.80
2017,06,23,14,01,22.70
2017,06,23,14,02,22.70
2017,06,23,14,03,22.60
2017,06,23,14,04,22.60
2017,06,23,14,05,22.50
2017,06,23,14,06,22.40
2017,06,23,14,07,22.30
2017,06,23,14,08,22.30
2017,06,23,14,09,22.40
2017,06,23,14,10,22.40
2017,06,23,14,11,22.40
2017,06,23,14,12,22.40
2017,06,23,14,13,22.40
2017,06,23,14,14,22.40
2017,06,23,14,15,22.30
2017,06,23,14,16,22.30
2017,06,23,14,17,22.30
2017,06,23,14,18,22.30
2017,06,23,14,19,22.30
2017,06,23,14,20,22.40
2017,06,23,14,21,22.40
2017,06,23,14,22,22.50
2017,06,23,14,23,22.60
2017,06,23,14,24,22.60
2017,06,23,14,25,22.60
2017,06,23,14,26,22.70
2017,06,23,14,27,22.80
2017,06,23,14,28,22.80
2017,06,23,14,29,22.90
2017,06,23,14,30,23.00
2017,06,23,14,31,23.00
2017,06,23,14,32,23.10
2017,06,23,14,33,23.10
2017,06,23,14,34,23.10
2017,06,23,14,35,23.00
2017,06,23,14,36,23.00
2017,06,23,14,37,22.90
2017,06,23,14,38,22.90
2017,06,23,14,39,22.90
2017,06,23,14,40,23.00
2017,06,23,14,41,23.10
2017,06,23,14,42,23.10
2017,06,23,14,43,23.20
2017,06,23,14,44,23.30
2017,06,23,14,45,23.20
2017,06,23,14,46,23.20
2017,06,23,14,47,23.20
2017,06,23,14,48,23.30
2017,06,23,14,49,23.30
2017,06,23,14,50,23.20
2017,06,23,14,51,23.20
2017,06,23,14,52,23.20
2017,06,23,14,53,23.20
2017,06,23,14,54,23.20
2017,06,23,14,55,23.20
2017,06,23,14,56,23.20
2017,06,23,14,57,23.20
2017,06,23,14,58,23.20
2017,06,23,14,59,23.20
2017,06,23,15,00,23.20
2017,06,23,15,01,23.20
2017,06,23,15,02,23.20
2017,06,23,15,03,23.30
2017,06,23,15,04,23.30
2017,06,23,15,05,23.40
2017,06,23,15,06,23.40
2017,06,23,15,07,23.40
2017,06,23,15,08,23.30
2017,06,23,15,09,23.30
2017,06,23,15,10,23.30
2017,06,23,15,11,23.40
2017,06,23,15,12,23.50
2017,06,23,15,13,23.50
2017,06,23,15,14,23.60
2017,06,23,15,15,23.60
2017,06,23,15,16,23.60
2017,06,23,15,17,23.60
2017,06,23,15,18,23.70
2017,06,23,15,19,23.70
2017,06,23,15,20,23.70
2017,06,23,15,21,23.70
2017,06,23,15,22,23.70
2017,06,23,15,23,23.70
2017,06,23,15,24,23.80
2017,06,23,15,25,23.80
2017,06,23,15,26,23.80
2017,06,23,15,27,23.80
2017,06,23,15,28,23.80
2017,06,23,15,29,23.80
2017,06,23,15,30,23.80
2017,06,23,15,31,23.80
2017,06,23,15,32,23.80
2017,06,23,15,33,23.80
2017,06,23,15,34,23.70
2017,06,23,15,35,23.70
2017,06,23,15,36,23.70
2017,06,23,15,37,23.70
2017,06,23,15,38,23.70
2017,06,23,15,39,23.70
2017,06,23,15,40,23.70
2017,06,23,15,41,23.70
2017,06,23,15,42,23.60
2017,06,23,15,43,23.60
2017,06,23,15,44,23.60
2017,06,23,15,45,23.50
2017,06,23,15,46,23.50
2017,06,23,15,47,23.50
2017,06,23,15,48,23.60
2017,06,23,15,49,23.60
2017,06,23,15,50,23.60
2017,06,23,15,51,23.60
2017,06,23,15,52,23.70
2017,06,23,15,53,23.70
2017,06,23,15,54,23.70
2017,06,23,15,55,23.80
2017,06,23,15,56,23.70
2017,06,23,15,57,23.80
2017,06,23,15,58,23.80
2017,06,23,15,59,23.80
2017,06,23,16,00,23.70
2017,06,23,16,01,23.70
2017,06,23,16,02,23.70
2017,06,23,16,03,23.70
2017,06,23,16,04,23.70
2017,06,23,16,05,23.70
2017,06,23,16,06,23.70
2017,06,23,16,07,23.70
2017,06,23,16,08,23.70
2017,06,23,16,09,23.60
2017,06,23,16,10,23.60
2017,06,23,16,11,23.70
2017,06,23,16,12,23.70
2017,06,23,16,13,23.80
2017,06,23,16,14,23.80
2017,06,23,16,15,23.70
2017,06,23,16,16,23.70
2017,06,23,16,17,23.70
2017,06,23,16,18,23.80
2017,06,23,16,19,23.80
2017,06,23,16,20,23.90
2017,06,23,16,21,23.90
2017,06,23,16,22,24.00
2017,06,23,16,23,24.00
2017,06,23,16,24,24.10
2017,06,23,16,25,24.10
2017,06,23,16,26,24.20
2017,06,23,16,27,24.20
2017,06,23,16,28,24.10
2017,06,23,16,29,24.10
2017,06,23,16,30,24.10
2017,06,23,16,31,24.10
2017,06,23,16,32,24.10
2017,06,23,16,33,24.10
2017,06,23,16,34,24.10
2017,06,23,16,35,24.10
2017,06,23,16,36,24.10
2017,06,23,16,37,24.20
2017,06,23,16,38,24.10
2017,06,23,16,39,24.10
2017,06,23,16,40,24.10
2017,06,23,16,41,24.10
2017,06,23,16,42,24.10
2017,06,23,16,43,24.20
2017,06,23,16,44,24.20
2017,06,23,16,45,24.20
2017,06,23,16,46,24.20
2017,06,23,16,47,24.20
2017,06,23,16,48,24.20
2017,06,23,16,49,24.20
2017,06,23,16,50,24.10
2017,06,23,16,51,24.10
2017,06,23,16,52,24.00
2017,06,23,16,53,23.90
2017,06,23,16,54,23.90
2017,06,23,16,55,23.90
2017,06,23,16,56,24.00
2017,06,23,16,57,24.00
2017,06,23,16,58,24.10
2017,06,23,16,59,24.10
2017,06,23,17,00,24.10
2017,06,23,17,01,24.10
2017,06,23,17,02,24.20
2017,06,23,17,03,24.20
2017,06,23,17,04,24.20
2017,06,23,17,05,24.20
2017,06,23,17,06,24.30
2017,06,23,17,07,24.30
2017,06,23,17,08,24.30
2017,06,23,17,09,24.30
2017,06,23,17,10,24.30
2017,06,23,17,11,24.30
2017,06,23,17,12,24.30
2017,06,23,17,13,24.30
2017,06,23,17,14,24.30
2017,06,23,17,15,24.30
2017,06,23,17,16,24.30
2017,06,23,17,17,24.30
2017,06,23,17,18,24.30
2017,06,23,17,19,24.20